DLH8YA EDDM-EGLL

Flight info

Callsign DLH8YA
Flight time 1h 27m
Altitude 34000
Route GIVMI Y101 INBED DCT REKDI DCT LOHRE DCT ADKUV DCT DENUT L608 LOGAN
Aircraft A321/M-SDE3FGHIRWY/LB1

Departure

Time 2026-05-06 20:10
Airport Munich Airport (EDDM)

Arrival

Time 2026-05-06 21:38
Airport London Heathrow Airport (EGLL)
Time Latitude Longitude Altitude Speed Heading
2026-05-06 19:12 48.35730 11.79685 1486 ft 0 kts 83°
2026-05-06 19:57 48.35729 11.79674 1485 ft 4 kts 83°
2026-05-06 19:57 48.35726 11.79633 1481 ft 4 kts 83°
2026-05-06 19:57 48.35724 11.79601 1481 ft 4 kts 81°
2026-05-06 19:58 48.35715 11.79564 1473 ft 4 kts 46°
2026-05-06 19:58 48.35695 11.79548 1475 ft 4 kts 355°
2026-05-06 19:58 48.35671 11.79552 1471 ft 2 kts 353°
2026-05-06 19:58 48.35670 11.79553 1471 ft 0 kts 353°
2026-05-06 20:00 48.35682 11.79550 1478 ft 6 kts 353°
2026-05-06 20:00 48.35745 11.79539 1474 ft 9 kts 354°
2026-05-06 20:01 48.35801 11.79531 1480 ft 7 kts 354°
2026-05-06 20:01 48.35845 11.79523 1485 ft 7 kts 353°
2026-05-06 20:01 48.35897 11.79514 1480 ft 9 kts 354°
2026-05-06 20:01 48.35964 11.79503 1475 ft 12 kts 353°
2026-05-06 20:02 48.36062 11.79487 1485 ft 12 kts 355°
2026-05-06 20:02 48.36163 11.79469 1478 ft 17 kts 358°
2026-05-06 20:02 48.36222 11.79594 1472 ft 16 kts 85°
2026-05-06 20:02 48.36237 11.79777 1473 ft 19 kts 84°
2026-05-06 20:03 48.36254 11.79995 1485 ft 23 kts 83°
2026-05-06 20:03 48.36274 11.80248 1479 ft 26 kts 83°
2026-05-06 20:03 48.36297 11.80526 1481 ft 26 kts 83°
2026-05-06 20:03 48.36316 11.80792 1483 ft 25 kts 82°
2026-05-06 20:04 48.36337 11.81052 1478 ft 25 kts 83°
2026-05-06 20:04 48.36358 11.81321 1482 ft 26 kts 83°
2026-05-06 20:04 48.36379 11.81597 1479 ft 27 kts 84°
2026-05-06 20:04 48.36399 11.81884 1485 ft 28 kts 87°
2026-05-06 20:05 48.36402 11.82143 1485 ft 22 kts 83°
2026-05-06 20:05 48.36467 11.82295 1480 ft 17 kts
2026-05-06 20:05 48.36533 11.82286 1485 ft 0 kts 345°
2026-05-06 20:08 48.36534 11.82286 1485 ft 0 kts 345°
2026-05-06 20:08 48.36558 11.82268 1473 ft 7 kts 331°
2026-05-06 20:08 48.36599 11.82202 1480 ft 10 kts 306°
2026-05-06 20:09 48.36644 11.82116 1480 ft 11 kts 320°
2026-05-06 20:09 48.36682 11.82033 1474 ft 9 kts 264°
2026-05-06 20:09 48.36681 11.82020 1480 ft 0 kts 263°
2026-05-06 20:09 48.36668 11.81849 1475 ft 50 kts 263°
2026-05-06 20:10 48.36599 11.80976 1476 ft 116 kts 263°
2026-05-06 20:10 48.36482 11.79502 1548 ft 161 kts 263°
2026-05-06 20:10 48.36380 11.77834 2299 ft 158 kts 264°
2026-05-06 20:10 48.36283 11.76200 3121 ft 157 kts 265°
2026-05-06 20:11 48.36175 11.74517 3551 ft 171 kts 265°
2026-05-06 20:11 48.36044 11.72631 3784 ft 191 kts 265°
2026-05-06 20:11 48.35902 11.70573 4089 ft 204 kts 265°
2026-05-06 20:11 48.35837 11.68449 4777 ft 203 kts 278°
2026-05-06 20:12 48.36349 11.66435 5188 ft 220 kts 298°
2026-05-06 20:12 48.37216 11.64377 5508 ft 240 kts 299°
2026-05-06 20:12 48.38107 11.62215 6208 ft 246 kts 298°
2026-05-06 20:12 48.39003 11.59997 6903 ft 250 kts 297°
2026-05-06 20:13 48.39913 11.57734 7579 ft 255 kts 297°
2026-05-06 20:13 48.40840 11.55423 8242 ft 261 kts 296°
2026-05-06 20:13 48.41789 11.53056 8897 ft 267 kts 296°
2026-05-06 20:13 48.42763 11.50637 9551 ft 273 kts 296°
2026-05-06 20:14 48.43861 11.48251 10098 ft 288 kts 308°
2026-05-06 20:14 48.45565 11.46390 10245 ft 318 kts 325°
2026-05-06 20:14 48.47558 11.44690 10372 ft 340 kts 326°
2026-05-06 20:14 48.49691 11.42916 10497 ft 360 kts 327°
2026-05-06 20:15 48.51936 11.41064 10768 ft 373 kts 327°
2026-05-06 20:15 48.54223 11.39184 11360 ft 376 kts 327°
2026-05-06 20:15 48.56495 11.37307 11943 ft 379 kts 327°
2026-05-06 20:15 48.58815 11.35375 12503 ft 382 kts 327°
2026-05-06 20:16 48.61151 11.33414 13079 ft 386 kts 327°
2026-05-06 20:16 48.63510 11.31425 13612 ft 391 kts 327°
2026-05-06 20:16 48.65894 11.29408 14103 ft 395 kts 327°
2026-05-06 20:16 48.68303 11.27367 14581 ft 399 kts 327°
2026-05-06 20:17 48.70737 11.25300 15062 ft 403 kts 327°
2026-05-06 20:17 48.73198 11.23211 15523 ft 407 kts 328°
2026-05-06 20:17 48.75681 11.21104 15970 ft 412 kts 328°
2026-05-06 20:17 48.78192 11.18970 16434 ft 415 kts 328°
2026-05-06 20:18 48.80724 11.16817 16885 ft 419 kts 328°
2026-05-06 20:18 48.83283 11.14643 17323 ft 423 kts 328°
2026-05-06 20:18 48.85861 11.12449 17735 ft 427 kts 328°
2026-05-06 20:18 48.88466 11.10225 18150 ft 431 kts 328°
2026-05-06 20:19 48.91089 11.07980 18523 ft 435 kts 328°
2026-05-06 20:19 48.93734 11.05715 18918 ft 437 kts 328°
2026-05-06 20:19 48.96396 11.03438 19332 ft 440 kts 328°
2026-05-06 20:19 48.99068 11.01153 19776 ft 442 kts 328°
2026-05-06 20:20 49.01756 10.98849 20168 ft 445 kts 328°
2026-05-06 20:20 49.04461 10.96526 20574 ft 448 kts 328°
2026-05-06 20:20 49.07184 10.94180 20947 ft 451 kts 328°
2026-05-06 20:20 49.09922 10.91812 21307 ft 454 kts 328°
2026-05-06 20:21 49.12684 10.89422 21665 ft 458 kts 328°
2026-05-06 20:21 49.15462 10.87019 22023 ft 461 kts 328°
2026-05-06 20:21 49.18263 10.84596 22393 ft 464 kts 328°
2026-05-06 20:21 49.21082 10.82157 22732 ft 467 kts 328°
2026-05-06 20:22 49.23921 10.79696 23067 ft 471 kts 329°
2026-05-06 20:22 49.26776 10.77218 23445 ft 473 kts 329°
2026-05-06 20:22 49.29644 10.74723 23765 ft 475 kts 328°
2026-05-06 20:22 49.32520 10.72215 24115 ft 477 kts 328°
2026-05-06 20:23 49.35415 10.69687 24376 ft 481 kts 328°
2026-05-06 20:23 49.38331 10.67139 24672 ft 483 kts 328°
2026-05-06 20:23 49.41256 10.64581 25003 ft 485 kts 328°
2026-05-06 20:23 49.44193 10.62009 25322 ft 487 kts 328°
2026-05-06 20:24 49.47139 10.59425 25619 ft 488 kts 328°
2026-05-06 20:24 49.50094 10.56830 25912 ft 490 kts 328°
2026-05-06 20:24 49.53054 10.54228 26208 ft 491 kts 328°
2026-05-06 20:24 49.56023 10.51611 26477 ft 492 kts 328°
2026-05-06 20:25 49.59000 10.48982 26727 ft 494 kts 328°
2026-05-06 20:25 49.61961 10.46285 26963 ft 494 kts 323°
2026-05-06 20:25 49.64675 10.43077 27263 ft 490 kts 315°
2026-05-06 20:25 49.67055 10.39341 27633 ft 485 kts 307°
2026-05-06 20:26 49.69062 10.35189 27980 ft 481 kts 300°
2026-05-06 20:26 49.70936 10.30920 28307 ft 480 kts 300°
2026-05-06 20:26 49.72814 10.26652 28651 ft 479 kts 300°
2026-05-06 20:26 49.74689 10.22400 28987 ft 479 kts 300°
2026-05-06 20:27 49.76568 10.18149 29325 ft 478 kts 300°
2026-05-06 20:27 49.78442 10.13901 29669 ft 478 kts 300°
2026-05-06 20:27 49.80309 10.09649 29983 ft 477 kts 300°
2026-05-06 20:27 49.82169 10.05396 30276 ft 477 kts 300°
2026-05-06 20:28 49.84024 10.01145 30583 ft 475 kts 300°
2026-05-06 20:28 49.85870 9.96908 30916 ft 474 kts 301°
2026-05-06 20:28 49.87711 9.92676 31221 ft 473 kts 301°
2026-05-06 20:28 49.89546 9.88447 31522 ft 472 kts 300°
2026-05-06 20:29 49.91376 9.84226 31812 ft 471 kts 300°
2026-05-06 20:29 49.93204 9.80011 32114 ft 470 kts 300°
2026-05-06 20:29 49.95026 9.75801 32400 ft 469 kts 300°
2026-05-06 20:29 49.96844 9.71601 32686 ft 468 kts 300°
2026-05-06 20:30 49.98660 9.67404 32978 ft 467 kts 300°
2026-05-06 20:30 50.02266 9.59023 33568 ft 466 kts 300°
2026-05-06 20:30 50.04060 9.54831 33785 ft 465 kts 299°
2026-05-06 20:31 50.05770 9.50578 33832 ft 462 kts 293°
2026-05-06 20:31 50.07991 9.41349 33834 ft 453 kts 281°
2026-05-06 20:32 50.09655 9.31887 33833 ft 453 kts 281°
2026-05-06 20:32 50.11335 9.22418 33843 ft 453 kts 281°
2026-05-06 20:33 50.12996 9.12950 33845 ft 452 kts 281°
2026-05-06 20:33 50.14631 9.03484 33856 ft 452 kts 281°
2026-05-06 20:34 50.16267 8.94005 33868 ft 453 kts 281°
2026-05-06 20:34 50.17908 8.84511 33401 ft 453 kts 282°
2026-05-06 20:34 50.18740 8.79778 33278 ft 451 kts 282°
2026-05-06 20:35 50.19566 8.75044 33439 ft 453 kts 281°
2026-05-06 20:35 50.20371 8.70293 33692 ft 452 kts 281°
2026-05-06 20:35 50.21165 8.65542 33843 ft 453 kts 281°
2026-05-06 20:36 50.22752 8.56036 33864 ft 452 kts 281°
2026-05-06 20:36 50.24336 8.46611 33863 ft 452 kts 281°
2026-05-06 20:37 50.25938 8.37049 33868 ft 452 kts 281°
2026-05-06 20:37 50.27510 8.27616 33878 ft 452 kts 282°
2026-05-06 20:38 50.29083 8.18114 33874 ft 451 kts 282°
2026-05-06 20:38 50.30651 8.08606 33878 ft 452 kts 281°
2026-05-06 20:39 50.32208 7.99076 33881 ft 452 kts 281°
2026-05-06 20:39 50.33765 7.89531 33890 ft 453 kts 281°
2026-05-06 20:40 50.35312 7.79972 33900 ft 453 kts 282°
2026-05-06 20:40 50.36855 7.70404 33901 ft 453 kts 282°
2026-05-06 20:41 50.38391 7.60827 33901 ft 453 kts 282°
2026-05-06 20:41 50.39913 7.51247 33898 ft 453 kts 282°
2026-05-06 20:42 50.41426 7.41660 33896 ft 453 kts 281°
2026-05-06 20:42 50.42931 7.32073 33912 ft 452 kts 282°
2026-05-06 20:43 50.44431 7.22495 33911 ft 452 kts 282°
2026-05-06 20:43 50.45919 7.12927 33911 ft 451 kts 282°
2026-05-06 20:44 50.47397 7.03362 33919 ft 451 kts 282°
2026-05-06 20:44 50.48869 6.93795 33926 ft 451 kts 282°
2026-05-06 20:45 50.50324 6.84215 33932 ft 451 kts 282°
2026-05-06 20:45 50.52388 6.74909 33927 ft 452 kts 290°
2026-05-06 20:46 50.54663 6.65714 33927 ft 451 kts 289°
2026-05-06 20:46 50.56928 6.56502 33924 ft 451 kts 289°
2026-05-06 20:47 50.59188 6.47287 33928 ft 451 kts 289°
2026-05-06 20:47 50.61434 6.38070 33932 ft 451 kts 290°
2026-05-06 20:48 50.63673 6.28849 33931 ft 451 kts 290°
2026-05-06 20:48 50.65903 6.19616 33933 ft 451 kts 290°
2026-05-06 20:49 50.68126 6.10386 33941 ft 450 kts 289°
2026-05-06 20:49 50.70339 6.01147 33950 ft 450 kts 290°
2026-05-06 20:50 50.72173 5.93471 33954 ft 450 kts 289°
2026-05-06 20:50 50.74366 5.84229 33965 ft 449 kts 289°
2026-05-06 20:51 50.76547 5.74992 33967 ft 449 kts 289°
2026-05-06 20:51 50.78721 5.65757 33965 ft 448 kts 289°
2026-05-06 20:52 50.80890 5.56525 33973 ft 447 kts 289°
2026-05-06 20:52 50.83051 5.47313 33972 ft 446 kts 289°
2026-05-06 20:53 50.85199 5.38102 33978 ft 446 kts 289°
2026-05-06 20:53 50.87324 5.28892 33975 ft 445 kts 289°
2026-05-06 20:54 50.89446 5.19679 33975 ft 445 kts 289°
2026-05-06 20:54 50.91561 5.10464 33973 ft 445 kts 289°
2026-05-06 20:55 50.93671 5.01244 33973 ft 445 kts 289°
2026-05-06 20:55 50.95770 4.92023 33971 ft 445 kts 289°
2026-05-06 20:56 50.97867 4.82798 33968 ft 445 kts 289°
2026-05-06 20:56 50.99957 4.73566 33971 ft 445 kts 289°
2026-05-06 20:57 51.02037 4.64324 33988 ft 444 kts 289°
2026-05-06 20:57 51.04106 4.55074 33992 ft 444 kts 289°
2026-05-06 20:58 51.06155 4.45825 33993 ft 443 kts 289°
2026-05-06 20:58 51.08207 4.36584 33997 ft 443 kts 289°
2026-05-06 20:59 51.10253 4.27332 33995 ft 443 kts 289°
2026-05-06 20:59 51.12289 4.18074 33991 ft 443 kts 289°
2026-05-06 21:00 51.14315 4.08805 33989 ft 443 kts 289°
2026-05-06 21:00 51.16341 3.99526 33990 ft 443 kts 289°
2026-05-06 21:01 51.18354 3.90244 33981 ft 443 kts 289°
2026-05-06 21:01 51.20359 3.80956 33983 ft 443 kts 289°
2026-05-06 21:02 51.22343 3.71722 33980 ft 443 kts 289°
2026-05-06 21:02 51.24751 3.62703 33978 ft 443 kts 301°
2026-05-06 21:03 51.27897 3.54250 33997 ft 443 kts 301°
2026-05-06 21:03 51.31029 3.45778 33989 ft 443 kts 300°
2026-05-06 21:04 51.34152 3.37290 33989 ft 443 kts 298°
2026-05-06 21:04 51.36547 3.28233 33991 ft 442 kts 290°
2026-05-06 21:05 51.38725 3.19029 33999 ft 442 kts 290°
2026-05-06 21:05 51.40894 3.09821 33996 ft 442 kts 290°
2026-05-06 21:06 51.43063 3.00623 34008 ft 441 kts 290°
2026-05-06 21:06 51.45220 2.91432 34003 ft 441 kts 290°
2026-05-06 21:07 51.47367 2.82233 34011 ft 440 kts 290°
2026-05-06 21:07 51.49502 2.73032 34007 ft 440 kts 290°
2026-05-06 21:08 51.51626 2.63829 34016 ft 439 kts 290°
2026-05-06 21:08 51.53749 2.54639 34021 ft 438 kts 290°
2026-05-06 21:09 51.55854 2.45465 34021 ft 437 kts 289°
2026-05-06 21:09 51.57939 2.36290 34024 ft 437 kts 289°
2026-05-06 21:10 51.60025 2.27121 34031 ft 437 kts 289°
2026-05-06 21:10 51.62114 2.17942 34029 ft 437 kts 289°
2026-05-06 21:11 51.64189 2.08755 34028 ft 437 kts 289°
2026-05-06 21:11 51.66250 1.99562 34029 ft 436 kts 289°
2026-05-06 21:12 51.68304 1.90371 33995 ft 435 kts 289°
2026-05-06 21:12 51.69333 1.85772 33000 ft 440 kts 289°
2026-05-06 21:12 51.70374 1.81094 31811 ft 447 kts 289°
2026-05-06 21:12 51.71424 1.76355 30727 ft 451 kts 289°
2026-05-06 21:13 51.72480 1.71574 29618 ft 454 kts 289°
2026-05-06 21:13 51.73515 1.66752 28363 ft 456 kts 285°
2026-05-06 21:13 51.74188 1.61822 27056 ft 454 kts 277°
2026-05-06 21:13 51.74415 1.56749 25212 ft 455 kts 269°
2026-05-06 21:14 51.74167 1.51636 23355 ft 459 kts 263°
2026-05-06 21:14 51.73817 1.46579 22283 ft 446 kts 264°
2026-05-06 21:14 51.73489 1.41619 22003 ft 444 kts 264°
2026-05-06 21:14 51.73171 1.36676 21671 ft 442 kts 264°
2026-05-06 21:15 51.72859 1.31769 20994 ft 438 kts 264°
2026-05-06 21:15 51.72546 1.26907 20341 ft 434 kts 264°
2026-05-06 21:15 51.72231 1.22090 19696 ft 430 kts 264°
2026-05-06 21:15 51.71914 1.17323 19047 ft 426 kts 264°
2026-05-06 21:16 51.71594 1.12591 18417 ft 422 kts 264°
2026-05-06 21:16 51.71273 1.07901 17714 ft 419 kts 264°
2026-05-06 21:16 51.70951 1.03259 17110 ft 415 kts 264°
2026-05-06 21:16 51.70633 0.98647 16484 ft 412 kts 264°
2026-05-06 21:17 51.70319 0.94072 15862 ft 410 kts 264°
2026-05-06 21:17 51.70007 0.89503 14822 ft 409 kts 264°
2026-05-06 21:17 51.69695 0.85003 13829 ft 397 kts 264°
2026-05-06 21:17 51.69397 0.80737 13430 ft 368 kts 264°
2026-05-06 21:18 51.69116 0.76802 13251 ft 339 kts 264°
2026-05-06 21:18 51.68854 0.73184 13092 ft 312 kts 264°
2026-05-06 21:18 51.68609 0.69785 12596 ft 301 kts 264°
2026-05-06 21:18 51.68374 0.66463 11944 ft 296 kts 265°
2026-05-06 21:19 51.68142 0.63190 11300 ft 292 kts 265°
2026-05-06 21:19 51.67914 0.60004 11158 ft 286 kts 265°
2026-05-06 21:19 51.67684 0.56804 11092 ft 288 kts 264°
2026-05-06 21:19 51.67452 0.53597 10980 ft 288 kts 264°
2026-05-06 21:20 51.67221 0.50392 10867 ft 288 kts 264°
2026-05-06 21:20 51.66988 0.47192 10666 ft 289 kts 265°
2026-05-06 21:20 51.66752 0.43968 10214 ft 289 kts 265°
2026-05-06 21:20 51.66514 0.40767 9734 ft 289 kts 264°
2026-05-06 21:21 51.66277 0.37569 9347 ft 285 kts 265°
2026-05-06 21:21 51.66043 0.34398 8824 ft 287 kts 264°
2026-05-06 21:21 51.65808 0.31231 8396 ft 285 kts 263°
2026-05-06 21:21 51.65574 0.28071 8018 ft 282 kts 263°
2026-05-06 21:22 51.65336 0.24920 7569 ft 282 kts 263°
2026-05-06 21:22 51.65101 0.21813 7338 ft 274 kts 262°
2026-05-06 21:22 51.64874 0.18828 7213 ft 263 kts 262°
2026-05-06 21:22 51.64654 0.15959 7096 ft 253 kts 262°
2026-05-06 21:23 51.64457 0.13202 7048 ft 246 kts 264°
2026-05-06 21:23 51.64302 0.10466 7051 ft 246 kts 264°
2026-05-06 21:23 51.64160 0.07725 7052 ft 245 kts 264°
2026-05-06 21:23 51.64023 0.04993 7050 ft 246 kts 264°
2026-05-06 21:24 51.63882 0.02250 7050 ft 246 kts 264°
2026-05-06 21:24 51.63738 -0.00449 7053 ft 245 kts 264°
2026-05-06 21:24 51.63589 -0.03169 7044 ft 242 kts 266°
2026-05-06 21:24 51.63462 -0.05467 7041 ft 241 kts 266°
2026-05-06 21:25 51.63311 -0.08147 7050 ft 240 kts 266°
2026-05-06 21:25 51.63161 -0.10826 7052 ft 241 kts 265°
2026-05-06 21:25 51.63010 -0.13510 7054 ft 240 kts 266°
2026-05-06 21:25 51.62856 -0.16191 7055 ft 241 kts 265°
2026-05-06 21:26 51.62700 -0.18876 7055 ft 241 kts 265°
2026-05-06 21:26 51.62543 -0.21557 7057 ft 241 kts 266°
2026-05-06 21:26 51.62389 -0.24239 7056 ft 241 kts 265°
2026-05-06 21:26 51.62235 -0.26917 7057 ft 241 kts 266°
2026-05-06 21:27 51.62080 -0.29600 7059 ft 241 kts 266°
2026-05-06 21:27 51.61925 -0.32277 7030 ft 240 kts 266°
2026-05-06 21:27 51.61768 -0.34954 7030 ft 241 kts 265°
2026-05-06 21:27 51.61609 -0.37632 7030 ft 241 kts 265°
2026-05-06 21:28 51.61449 -0.40313 7028 ft 241 kts 265°
2026-05-06 21:28 51.61290 -0.42993 7029 ft 241 kts 265°
2026-05-06 21:28 51.61130 -0.45676 7030 ft 241 kts 265°
2026-05-06 21:28 51.60968 -0.48357 7030 ft 241 kts 265°
2026-05-06 21:29 51.60805 -0.51034 7031 ft 241 kts 265°
2026-05-06 21:29 51.60642 -0.53715 7030 ft 241 kts 266°
2026-05-06 21:29 51.60479 -0.56390 7031 ft 240 kts 265°
2026-05-06 21:29 51.60316 -0.59066 7030 ft 240 kts 265°
2026-05-06 21:30 51.60153 -0.61743 7027 ft 241 kts 265°
2026-05-06 21:30 51.59991 -0.64421 7029 ft 241 kts 265°
2026-05-06 21:30 51.59827 -0.67116 6822 ft 242 kts 265°
2026-05-06 21:30 51.59662 -0.69795 6557 ft 239 kts 265°
2026-05-06 21:31 51.59500 -0.72445 6292 ft 238 kts 265°
2026-05-06 21:31 51.59335 -0.75088 6037 ft 237 kts 264°
2026-05-06 21:31 51.58817 -0.77581 5692 ft 239 kts 234°
2026-05-06 21:31 51.57544 -0.79255 5319 ft 239 kts 201°
2026-05-06 21:32 51.55916 -0.79580 4984 ft 238 kts 173°
2026-05-06 21:32 51.52630 -0.79187 4298 ft 236 kts 179°
2026-05-06 21:32 51.50993 -0.78876 3816 ft 239 kts 162°
2026-05-06 21:33 51.49574 -0.77737 3648 ft 225 kts 142°
2026-05-06 21:33 51.48507 -0.76004 3477 ft 207 kts 124°
2026-05-06 21:33 51.47883 -0.74057 3270 ft 192 kts 106°
2026-05-06 21:33 51.47637 -0.72044 3050 ft 179 kts 91°
2026-05-06 21:34 51.47640 -0.70068 2818 ft 175 kts 87°
2026-05-06 21:34 51.47651 -0.68132 2582 ft 170 kts 87°
2026-05-06 21:34 51.47662 -0.66274 2355 ft 164 kts 86°
2026-05-06 21:34 51.47672 -0.64451 2130 ft 163 kts 86°
2026-05-06 21:35 51.47682 -0.62645 1913 ft 161 kts 86°
2026-05-06 21:35 51.47690 -0.60882 1689 ft 151 kts 87°
2026-05-06 21:35 51.47700 -0.59242 1469 ft 144 kts 86°
2026-05-06 21:35 51.47715 -0.57659 1265 ft 141 kts 86°
2026-05-06 21:36 51.47710 -0.56094 1071 ft 140 kts 88°
2026-05-06 21:36 51.47694 -0.55063 951 ft 139 kts 87°
2026-05-06 21:36 51.47713 -0.53518 768 ft 138 kts 86°
2026-05-06 21:36 51.47736 -0.51982 555 ft 137 kts 88°
2026-05-06 21:37 51.47737 -0.50455 359 ft 137 kts 86°
2026-05-06 21:37 51.47750 -0.48921 187 ft 137 kts 87°
2026-05-06 21:37 51.47754 -0.47432 87 ft 122 kts 90°
2026-05-06 21:37 51.47764 -0.46303 88 ft 77 kts 89°
2026-05-06 21:38 51.47766 -0.45628 85 ft 41 kts 90°
2026-05-06 21:38 51.47680 -0.45473 88 ft 18 kts 169°
2026-05-06 21:38 51.47598 -0.45376 86 ft 16 kts 94°
2026-05-06 21:38 51.47596 -0.45186 88 ft 18 kts 88°
2026-05-06 21:39 51.47601 -0.44977 86 ft 19 kts 88°
2026-05-06 21:39 51.47603 -0.44751 87 ft 21 kts 90°
2026-05-06 21:39 51.47602 -0.44506 86 ft 23 kts 90°
2026-05-06 21:39 51.47598 -0.44245 86 ft 24 kts 95°
2026-05-06 21:40 51.47558 -0.44056 89 ft 12 kts 165°
2026-05-06 21:40 51.47470 -0.44059 86 ft 13 kts 179°
2026-05-06 21:40 51.47370 -0.44057 86 ft 15 kts 179°
2026-05-06 21:40 51.47262 -0.44056 86 ft 16 kts 180°
2026-05-06 21:41 51.47148 -0.44055 86 ft 17 kts 179°
2026-05-06 21:41 51.47102 -0.44089 89 ft 5 kts 256°
2026-05-06 21:41 51.47099 -0.44138 86 ft 4 kts 267°
2026-05-06 21:41 51.47099 -0.44168 86 ft 2 kts 268°
2026-05-06 21:42 51.47099 -0.44179 86 ft 1 kts 269°
2026-05-06 21:42 51.47099 -0.44191 86 ft 1 kts 269°
2026-05-06 21:42 51.47099 -0.44203 86 ft 0 kts 269°